QPF
0.01 0.01 0.01 0.02 0.02 0.02 0.02 0.02 0.01 0.01 0.00 0.00 0.00 0.00 0.00 0.00 0.00 0.00 0.00 0.00 0.00 0.00 0.00 0.01 0.01 0.01 0.01 0.01 0.01 0.02 0.02 0.01 0.01 0.01 0.01 0.00 0.00 0.00 0.00 0.00 0.00 0.00 0.01
0.02 0.02 0.02 0.03 0.03 0.03 0.04 0.03 0.03 0.02 0.01 0.00 0.00 0.00 0.00 0.00 0.00 0.00 0.00 0.00 0.00 0.00 0.00 0.00 0.01 0.01 0.01 0.02 0.02 0.02 0.01 0.01 0.02 0.02 0.02 0.01 0.01 0.01 0.01 0.01 0.00 0.00 0.00
0.02 0.03 0.04 0.04 0.04 0.03 0.04 0.04 0.04 0.04 0.03 0.02 0.02 0.02 0.01 0.01 0.00 0.00 0.00 0.00 0.00 0.00 0.00 0.00 0.00 0.00 0.00 0.01 0.03 0.03 0.03 0.03 0.03 0.02 0.02 0.02 0.01 0.01 0.01 0.01 0.01 0.01 0.01
0.06 0.07 0.08 0.09 0.08 0.07 0.08 0.08 0.08 0.07 0.06 0.05 0.04 0.04 0.03 0.02 0.01 0.01 0.01 0.00 0.00 0.00 0.00 0.00 0.00 0.00 0.00 0.01 0.02 0.02 0.03 0.04 0.03 0.02 0.02 0.02 0.02 0.02 0.02 0.01 0.01 0.01 0.01
0.13 0.15 0.17 0.17 0.16 0.16 0.16 0.14 0.14 0.11 0.10 0.09 0.07 0.05 0.03 0.02 0.01 0.00 0.00 0.00 0.00 0.00 0.00 0.00 0.00 0.00 0.00 0.01 0.01 0.01 0.02 0.02 0.03 0.02 0.02 0.02 0.03 0.03 0.02 0.02 0.02 0.02 0.02
0.20 0.24 0.25 0.28 0.28 0.28 0.25 0.23 0.21 0.18 0.15 0.11 0.08 0.04 0.03 0.01 0.01 0.00 0.00 0.00 0.00 0.00 0.00 0.00 0.00 0.00 0.00 0.00 0.00 0.00 0.00 0.01 0.01 0.02 0.02 0.02 0.03 0.03 0.03 0.02 0.02 0.02 0.02
0.40 0.40 0.39 0.39 0.36 0.34 0.32 0.28 0.24 0.20 0.17 0.13 0.08 0.05 0.03 0.02 0.01 0.01 0.00 0.00 0.00 0.00 0.00 0.00 0.00 0.00 0.00 0.00 0.00 0.00 0.00 0.00 0.00 0.01 0.01 0.01 0.01 0.02 0.02 0.02 0.02 0.02 0.02
0.64 0.61 0.57 0.51 0.44 0.40 0.37 0.31 0.27 0.20 0.14 0.09 0.06 0.05 0.03 0.02 0.01 0.01 0.01 0.00 0.00 0.00 0.00 0.00 0.00 0.00 0.00 0.00 0.00 0.00 0.00 0.00 0.00 0.00 0.00 0.00 0.00 0.01 0.01 0.01 0.02 0.02 0.02
0.70 0.65 0.57 0.52 0.49 0.48 0.46 0.40 0.30 0.21 0.13 0.08 0.05 0.04 0.03 0.02 0.01 0.01 0.00 0.00 0.00 0.00 0.00 0.00 0.00 0.00 0.00 0.00 0.00 0.00 0.00 0.00 0.00 0.00 0.00 0.00 0.00 0.00 0.00 0.01 0.01 0.02 0.02
0.46 0.41 0.40 0.43 0.46 0.46 0.43 0.37 0.28 0.19 0.12 0.07 0.04 0.03 0.02 0.01 0.01 0.00 0.00 0.00 0.00 0.00 0.00 0.00 0.00 0.00 0.00 0.00 0.00 0.00 0.00 0.00 0.00 0.00 0.00 0.00 0.00 0.00 0.00 0.01 0.01 0.01 0.02
0.34 0.31 0.32 0.33 0.32 0.29 0.26 0.21 0.16 0.12 0.07 0.04 0.03 0.02 0.01 0.01 0.00 0.00 0.00 0.00 0.00 0.00 0.00 0.00 0.00 0.00 0.00 0.00 0.00 0.00 0.00 0.00 0.00 0.00 0.00 0.00 0.00 0.00 0.00 0.01 0.01 0.01 0.01
0.21 0.17 0.14 0.13 0.14 0.13 0.11 0.08 0.04 0.03 0.02 0.02 0.01 0.01 0.01 0.01 0.00 0.00 0.00 0.00 0.00 0.00 0.00 0.00 0.00 0.00 0.00 0.00 0.00 0.00 0.00 0.00 0.00 0.00 0.00 0.00 0.00 0.00 0.00 0.01 0.01 0.01 0.01
0.10 0.09 0.08 0.08 0.08 0.06 0.04 0.03 0.02 0.02 0.01 0.01 0.01 0.01 0.01 0.00 0.00 0.00 0.00 0.00 0.00 0.00 0.00 0.00 0.00 0.00 0.00 0.00 0.00 0.00 0.00 0.00 0.00 0.00 0.00 0.00 0.00 0.00 0.00 0.01 0.01 0.01 0.01
0.04 0.04 0.03 0.03 0.03 0.03 0.02 0.01 0.01 0.01 0.01 0.01 0.00 0.00 0.00 0.00 0.00 0.00 0.00 0.00 0.00 0.00 0.00 0.00 0.00 0.00 0.00 0.00 0.00 0.00 0.00 0.00 0.00 0.00 0.00 0.00 0.00 0.00 0.00 0.01 0.01 0.01 0.01
0.02 0.02 0.02 0.02 0.01 0.01 0.01 0.01 0.01 0.00 0.00 0.00 0.01 0.01 0.01 0.01 0.00 0.00 0.00 0.00 0.00 0.00 0.00 0.00 0.00 0.00 0.00 0.00 0.00 0.00 0.00 0.00 0.00 0.00 0.00 0.00 0.00 0.01 0.01 0.01 0.01 0.01 0.01
0.01 0.01 0.01 0.01 0.01 0.01 0.01 0.01 0.01 0.01 0.01 0.01 0.01 0.01 0.01 0.00 0.00 0.00 0.00 0.00 0.00 0.00 0.00 0.00 0.00 0.00 0.00 0.00 0.00 0.00 0.00 0.00 0.00 0.00 0.00 0.00 0.00 0.00 0.01 0.01 0.01 0.01 0.01
0.01 0.01 0.01 0.01 0.01 0.01 0.01 0.01 0.01 0.01 0.00 0.00 0.00 0.00 0.00 0.00 0.00 0.00 0.00 0.00 0.00 0.00 0.00 0.00 0.00 0.00 0.01 0.01 0.01 0.01 0.01 0.01 0.00 0.00 0.00 0.00 0.00 0.00 0.01 0.01 0.01 0.02 0.02
0.01 0.01 0.01 0.01 0.01 0.01 0.00 0.00 0.00 0.00 0.00 0.00 0.00 0.00 0.00 0.00 0.00 0.00 0.00 0.00 0.00 0.01 0.01 0.01 0.00 0.00 0.01 0.01 0.01 0.02 0.01 0.01 0.01 0.00 0.00 0.00 0.00 0.00 0.01 0.01 0.01 0.02 0.01
0.01 0.01 0.01 0.01 0.00 0.00 0.00 0.00 0.00 0.00 0.00 0.00 0.00 0.00 0.00 0.00 0.00 0.00 0.01 0.01 0.01 0.01 0.02 0.02 0.01 0.01 0.01 0.01 0.02 0.02 0.02 0.02 0.01 0.01 0.00 0.00 0.00 0.00 0.01 0.01 0.01 0.01 0.00
0.01 0.01 0.01 0.01 0.01 0.01 0.00 0.00 0.00 0.00 0.00 0.00 0.00 0.00 0.00 0.00 0.01 0.01 0.02 0.02 0.03 0.03 0.03 0.03 0.03 0.02 0.02 0.02 0.03 0.04 0.03 0.03 0.03 0.01 0.01 0.01 0.01 0.01 0.01 0.01 0.01 0.01 0.00
0.01 0.01 0.01 0.01 0.01 0.00 0.00 0.00 0.00 0.00 0.00 0.00 0.00 0.00 0.00 0.00 0.01 0.01 0.02 0.03 0.05 0.06 0.05 0.05 0.05 0.04 0.03 0.04 0.05 0.05 0.05 0.04 0.03 0.03 0.03 0.03 0.04 0.04 0.03 0.02 0.01 0.01 0.01
0.01 0.01 0.01 0.01 0.01 0.01 0.01 0.01 0.01 0.01 0.00 0.00 0.00 0.00 0.00 0.00 0.00 0.00 0.01 0.01 0.03 0.05 0.06 0.06 0.06 0.06 0.05 0.06 0.07 0.06 0.05 0.05 0.04 0.03 0.05 0.03 0.03 0.04 0.03 0.04 0.03 0.01 0.01
0.01 0.01 0.01 0.01 0.01 0.01 0.00 0.00 0.00 0.00 0.00 0.01 0.01 0.01 0.01 0.01 0.01 0.02 0.02 0.01 0.02 0.02 0.03 0.07 0.08 0.07 0.07 0.07 0.08 0.07 0.06 0.06 0.05 0.05 0.07 0.05 0.04 0.04 0.04 0.02 0.01 0.00 0.00
0.01 0.01 0.00 0.00 0.01 0.00 0.00 0.00 0.00 0.00 0.01 0.01 0.01 0.01 0.02 0.03 0.03 0.02 0.01 0.02 0.03 0.04 0.04 0.05 0.07 0.06 0.06 0.06 0.06 0.06 0.06 0.05 0.04 0.05 0.08 0.06 0.04 0.05 0.04 0.05 0.03 0.01 0.00
0.00 0.00 0.00 0.00 0.01 0.01 0.00 0.00 0.00 0.00 0.01 0.01 0.01 0.01 0.01 0.03 0.01 0.00 0.01 0.03 0.03 0.04 0.02 0.02 0.03 0.03 0.03 0.03 0.03 0.05 0.07 0.06 0.04 0.03 0.06 0.06 0.04 0.04 0.04 0.06 0.06 0.01 0.01
0.00 0.00 0.00 0.00 0.01 0.01 0.00 0.00 0.00 0.01 0.01 0.01 0.01 0.02 0.01 0.01 0.00 0.00 0.01 0.04 0.05 0.04 0.03 0.04 0.04 0.04 0.05 0.05 0.04 0.06 0.07 0.06 0.05 0.03 0.04 0.04 0.03 0.04 0.03 0.04 0.05 0.06 0.05
MSLP
1016.35 1016.58 1016.74 1016.83 1016.88 1016.92 1016.95 1016.99 1017.05 1017.10 1017.15 1017.18 1017.20 1017.22 1017.24 1017.31 1017.43 1017.62 1017.88 1018.19 1018.53 1018.85 1019.13 1019.35 1019.50 1019.58 1019.62 1019.64 1019.66 1019.71 1019.78 1019.87 1019.98 1020.09 1020.19 1020.27 1020.35 1020.42 1020.48 1020.56 1020.64 1020.72 1020.81
1016.65 1016.89 1017.05 1017.14 1017.18 1017.19 1017.18 1017.19 1017.21 1017.25 1017.29 1017.33 1017.38 1017.43 1017.50 1017.61 1017.75 1017.95 1018.20 1018.49 1018.78 1019.05 1019.29 1019.46 1019.56 1019.61 1019.62 1019.61 1019.60 1019.61 1019.64 1019.69 1019.77 1019.85 1019.93 1020.00 1020.07 1020.13 1020.20 1020.28 1020.36 1020.45 1020.54
1017.11 1017.37 1017.55 1017.66 1017.71 1017.72 1017.71 1017.69 1017.69 1017.69 1017.71 1017.75 1017.79 1017.85 1017.93 1018.03 1018.18 1018.36 1018.58 1018.82 1019.07 1019.29 1019.48 1019.61 1019.68 1019.70 1019.68 1019.63 1019.58 1019.55 1019.53 1019.54 1019.58 1019.62 1019.68 1019.74 1019.80 1019.86 1019.94 1020.02 1020.10 1020.20 1020.29
1017.58 1017.88 1018.10 1018.26 1018.36 1018.40 1018.40 1018.39 1018.37 1018.35 1018.34 1018.35 1018.36 1018.39 1018.44 1018.51 1018.62 1018.76 1018.94 1019.13 1019.33 1019.51 1019.66 1019.76 1019.81 1019.80 1019.75 1019.68 1019.60 1019.53 1019.47 1019.44 1019.44 1019.45 1019.49 1019.53 1019.59 1019.65 1019.72 1019.80 1019.89 1019.99 1020.09
1017.93 1018.27 1018.57 1018.80 1018.97 1019.07 1019.13 1019.14 1019.12 1019.09 1019.05 1019.01 1018.98 1018.96 1018.96 1018.97 1019.02 1019.10 1019.22 1019.35 1019.50 1019.64 1019.76 1019.85 1019.88 1019.87 1019.81 1019.73 1019.63 1019.54 1019.46 1019.40 1019.37 1019.37 1019.38 1019.42 1019.46 1019.52 1019.59 1019.66 1019.74 1019.83 1019.93
1018.07 1018.47 1018.84 1019.17 1019.43 1019.62 1019.75 1019.81 1019.82 1019.79 1019.73 1019.66 1019.57 1019.49 1019.41 1019.36 1019.33 1019.34 1019.38 1019.46 1019.56 1019.66 1019.76 1019.83 1019.87 1019.87 1019.83 1019.75 1019.66 1019.57 1019.49 1019.42 1019.39 1019.37 1019.38 1019.40 1019.43 1019.47 1019.52 1019.57 1019.63 1019.70 1019.78
1017.98 1018.43 1018.89 1019.32 1019.69 1019.99 1020.20 1020.33 1020.39 1020.37 1020.31 1020.20 1020.07 1019.93 1019.79 1019.65 1019.54 1019.47 1019.44 1019.45 1019.49 1019.56 1019.63 1019.71 1019.76 1019.78 1019.77 1019.73 1019.67 1019.61 1019.54 1019.50 1019.46 1019.45 1019.45 1019.46 1019.47 1019.49 1019.50 1019.52 1019.53 1019.56 1019.59
1017.74 1018.25 1018.78 1019.30 1019.78 1020.18 1020.49 1020.69 1020.80 1020.82 1020.76 1020.65 1020.48 1020.29 1020.09 1019.88 1019.69 1019.53 1019.41 1019.34 1019.33 1019.35 1019.40 1019.47 1019.54 1019.60 1019.63 1019.64 1019.63 1019.62 1019.59 1019.57 1019.56 1019.56 1019.56 1019.55 1019.54 1019.52 1019.49 1019.44 1019.40 1019.36 1019.34
1017.50 1018.05 1018.64 1019.23 1019.79 1020.27 1020.66 1020.93 1021.09 1021.15 1021.11 1021.00 1020.82 1020.60 1020.34 1020.07 1019.80 1019.56 1019.36 1019.21 1019.12 1019.09 1019.10 1019.16 1019.24 1019.33 1019.41 1019.48 1019.53 1019.57 1019.59 1019.61 1019.63 1019.63 1019.63 1019.61 1019.57 1019.50 1019.41 1019.31 1019.19 1019.08 1018.98
1017.39 1017.97 1018.60 1019.24 1019.84 1020.37 1020.80 1021.12 1021.32 1021.41 1021.39 1021.29 1021.12 1020.88 1020.59 1020.27 1019.94 1019.61 1019.32 1019.08 1018.91 1018.81 1018.78 1018.81 1018.88 1018.99 1019.11 1019.22 1019.33 1019.42 1019.50 1019.55 1019.59 1019.61 1019.60 1019.56 1019.49 1019.38 1019.24 1019.07 1018.89 1018.71 1018.54
1017.53 1018.12 1018.76 1019.41 1020.01 1020.55 1020.98 1021.31 1021.53 1021.63 1021.63 1021.55 1021.38 1021.14 1020.83 1020.48 1020.09 1019.70 1019.33 1019.00 1018.74 1018.56 1018.46 1018.45 1018.50 1018.61 1018.74 1018.89 1019.04 1019.17 1019.27 1019.36 1019.41 1019.43 1019.41 1019.36 1019.26 1019.12 1018.94 1018.73 1018.50 1018.27 1018.05
1017.95 1018.54 1019.16 1019.77 1020.34 1020.83 1021.23 1021.53 1021.72 1021.82 1021.83 1021.75 1021.60 1021.37 1021.06 1020.69 1020.27 1019.82 1019.38 1018.97 1018.62 1018.35 1018.18 1018.11 1018.13 1018.21 1018.34 1018.50 1018.65 1018.80 1018.92 1019.00 1019.06 1019.07 1019.04 1018.97 1018.86 1018.71 1018.51 1018.28 1018.04 1017.78 1017.53
1018.61 1019.17 1019.74 1020.29 1020.78 1021.19 1021.51 1021.74 1021.89 1021.96 1021.96 1021.89 1021.75 1021.53 1021.24 1020.87 1020.43 1019.95 1019.45 1018.98 1018.55 1018.21 1017.97 1017.83 1017.79 1017.83 1017.93 1018.07 1018.21 1018.33 1018.44 1018.51 1018.54 1018.53 1018.49 1018.41 1018.29 1018.14 1017.96 1017.75 1017.51 1017.27 1017.03
1019.39 1019.92 1020.43 1020.89 1021.27 1021.57 1021.79 1021.93 1022.00 1022.02 1021.99 1021.92 1021.79 1021.60 1021.33 1020.98 1020.55 1020.06 1019.54 1019.02 1018.55 1018.14 1017.83 1017.63 1017.53 1017.51 1017.56 1017.64 1017.74 1017.82 1017.88 1017.90 1017.89 1017.85 1017.78 1017.68 1017.57 1017.44 1017.29 1017.12 1016.93 1016.74 1016.53
1020.20 1020.68 1021.11 1021.46 1021.73 1021.91 1022.01 1022.04 1022.03 1021.99 1021.93 1021.85 1021.73 1021.57 1021.33 1021.01 1020.61 1020.14 1019.63 1019.10 1018.60 1018.16 1017.80 1017.53 1017.37 1017.29 1017.27 1017.28 1017.30 1017.31 1017.29 1017.24 1017.16 1017.07 1016.95 1016.84 1016.72 1016.61 1016.50 1016.39 1016.27 1016.14 1015.99
1020.93 1021.35 1021.69 1021.95 1022.10 1022.17 1022.15 1022.09 1021.99 1021.89 1021.79 1021.70 1021.59 1021.45 1021.25 1020.98 1020.63 1020.20 1019.72 1019.21 1018.71 1018.25 1017.86 1017.56 1017.33 1017.18 1017.08 1017.00 1016.92 1016.83 1016.72 1016.57 1016.40 1016.23 1016.05 1015.90 1015.77 1015.66 1015.59 1015.53 1015.48 1015.43 1015.35
1021.52 1021.88 1022.14 1022.31 1022.38 1022.34 1022.24 1022.09 1021.93 1021.78 1021.64 1021.53 1021.42 1021.30 1021.14 1020.91 1020.62 1020.25 1019.81 1019.34 1018.87 1018.42 1018.03 1017.68 1017.41 1017.18 1016.99 1016.82 1016.63 1016.43 1016.20 1015.93 1015.66 1015.38 1015.12 1014.90 1014.73 1014.62 1014.55 1014.53 1014.53 1014.54 1014.54
1021.99 1022.28 1022.48 1022.59 1022.58 1022.49 1022.33 1022.13 1021.91 1021.71 1021.55 1021.41 1021.30 1021.18 1021.05 1020.86 1020.61 1020.30 1019.92 1019.51 1019.07 1018.64 1018.24 1017.87 1017.55 1017.26 1016.98 1016.70 1016.41 1016.08 1015.73 1015.34 1014.94 1014.55 1014.19 1013.89 1013.65 1013.49 1013.41 1013.39 1013.42 1013.47 1013.53
1022.36 1022.60 1022.75 1022.82 1022.78 1022.66 1022.47 1022.24 1022.00 1021.77 1021.57 1021.40 1021.27 1021.14 1021.00 1020.84 1020.62 1020.35 1020.02 1019.65 1019.25 1018.85 1018.44 1018.06 1017.69 1017.33 1016.97 1016.60 1016.20 1015.76 1015.29 1014.79 1014.28 1013.77 1013.30 1012.90 1012.57 1012.34 1012.20 1012.15 1012.18 1012.25 1012.34
1022.69 1022.87 1023.00 1023.05 1023.02 1022.90 1022.71 1022.47 1022.22 1021.96 1021.72 1021.52 1021.34 1021.18 1021.02 1020.85 1020.64 1020.39 1020.09 1019.74 1019.37 1018.97 1018.56 1018.15 1017.74 1017.33 1016.90 1016.45 1015.96 1015.43 1014.87 1014.27 1013.66 1013.06 1012.49 1011.98 1011.56 1011.24 1011.03 1010.92 1010.90 1010.96 1011.06
1022.98 1023.14 1023.26 1023.32 1023.30 1023.21 1023.04 1022.81 1022.55 1022.27 1021.99 1021.73 1021.49 1021.27 1021.07 1020.86 1020.62 1020.36 1020.07 1019.73 1019.35 1018.95 1018.53 1018.09 1017.64 1017.17 1016.69 1016.18 1015.64 1015.05 1014.43 1013.78 1013.11 1012.44 1011.79 1011.20 1010.69 1010.27 1009.97 1009.78 1009.70 1009.72 1009.80
1023.26 1023.40 1023.53 1023.61 1023.62 1023.56 1023.42 1023.21 1022.93 1022.62 1022.30 1021.97 1021.66 1021.37 1021.09 1020.82 1020.54 1020.25 1019.92 1019.56 1019.17 1018.75 1018.30 1017.83 1017.34 1016.83 1016.31 1015.77 1015.21 1014.61 1013.98 1013.31 1012.62 1011.93 1011.25 1010.60 1010.02 1009.52 1009.13 1008.85 1008.69 1008.65 1008.70
1023.50 1023.64 1023.78 1023.89 1023.93 1023.90 1023.78 1023.58 1023.29 1022.95 1022.57 1022.17 1021.78 1021.41 1021.05 1020.70 1020.36 1020.01 1019.64 1019.25 1018.82 1018.36 1017.88 1017.37 1016.85 1016.32 1015.78 1015.24 1014.69 1014.11 1013.51 1012.88 1012.23 1011.55 1010.87 1010.21 1009.58 1009.02 1008.55 1008.19 1007.95 1007.83 1007.83
1023.69 1023.83 1023.98 1024.10 1024.17 1024.16 1024.05 1023.85 1023.54 1023.17 1022.73 1022.27 1021.81 1021.35 1020.92 1020.50 1020.09 1019.68 1019.25 1018.81 1018.34 1017.84 1017.31 1016.78 1016.23 1015.69 1015.16 1014.63 1014.11 1013.60 1013.06 1012.51 1011.92 1011.30 1010.66 1010.01 1009.38 1008.78 1008.25 1007.82 1007.50 1007.30 1007.22
1023.81 1023.95 1024.11 1024.24 1024.31 1024.31 1024.20 1023.98 1023.65 1023.24 1022.77 1022.25 1021.72 1021.20 1020.70 1020.22 1019.75 1019.28 1018.81 1018.32 1017.81 1017.27 1016.71 1016.14 1015.58 1015.03 1014.52 1014.03 1013.56 1013.11 1012.67 1012.20 1011.70 1011.17 1010.58 1009.97 1009.34 1008.72 1008.15 1007.66 1007.26 1006.99 1006.85
1023.88 1024.02 1024.16 1024.29 1024.35 1024.34 1024.21 1023.98 1023.63 1023.19 1022.68 1022.13 1021.56 1021.00 1020.45 1019.92 1019.41 1018.91 1018.39 1017.86 1017.32 1016.74 1016.16 1015.57 1015.00 1014.45 1013.95 1013.50 1013.09 1012.71 1012.35 1011.97 1011.56 1011.10 1010.58 1010.00 1009.39 1008.77 1008.16 1007.61 1007.16 1006.82 1006.61
Thickness
5729 5726 5723 5719 5719 5717 5714 5712 5713 5710 5709 5708 5707 5706 5706 5704 5703 5701 5698 5691 5689 5688 5687 5686 5685 5684 5683 5682 5681 5679 5677 5676 5674 5673 5672 5671 5671 5670 5669 5669 5669 5669 5669
5725 5721 5718 5714 5713 5711 5710 5707 5706 5703 5703 5702 5700 5697 5697 5697 5693 5691 5692 5687 5682 5681 5680 5679 5679 5678 5677 5676 5674 5673 5672 5670 5668 5666 5665 5664 5663 5662 5662 5661 5661 5661 5661
5718 5714 5712 5708 5706 5704 5700 5698 5697 5696 5695 5693 5692 5689 5688 5686 5686 5683 5683 5682 5680 5675 5673 5671 5670 5669 5668 5667 5666 5665 5664 5662 5661 5659 5658 5656 5655 5654 5653 5653 5652 5652 5652
5711 5707 5703 5699 5696 5694 5692 5690 5689 5688 5686 5685 5684 5682 5680 5676 5675 5674 5674 5672 5671 5670 5665 5662 5660 5660 5659 5658 5657 5655 5654 5653 5652 5651 5649 5648 5646 5645 5644 5644 5643 5643 5643
5704 5698 5693 5689 5684 5682 5680 5680 5677 5676 5674 5673 5673 5670 5670 5669 5666 5666 5664 5663 5660 5658 5657 5652 5649 5648 5648 5646 5646 5644 5643 5642 5641 5640 5638 5637 5636 5635 5634 5633 5633 5632 5632
5696 5689 5683 5679 5675 5671 5668 5666 5663 5662 5661 5660 5662 5660 5659 5658 5657 5657 5655 5653 5650 5648 5647 5644 5643 5640 5636 5634 5633 5632 5630 5629 5628 5627 5626 5625 5624 5623 5622 5621 5621 5621 5620
5689 5681 5676 5670 5666 5663 5660 5657 5654 5652 5650 5649 5650 5649 5649 5648 5648 5646 5646 5644 5642 5639 5636 5634 5633 5630 5629 5624 5621 5619 5616 5615 5613 5612 5611 5610 5609 5608 5608 5608 5608 5608 5608
5685 5677 5671 5666 5661 5656 5653 5650 5646 5644 5642 5641 5641 5640 5642 5642 5638 5639 5635 5633 5631 5629 5628 5625 5621 5617 5616 5614 5611 5607 5603 5600 5599 5597 5596 5595 5594 5593 5593 5593 5593 5594 5594
5679 5672 5666 5659 5654 5650 5647 5643 5640 5638 5636 5633 5632 5631 5632 5634 5637 5632 5627 5623 5619 5618 5616 5614 5610 5606 5603 5599 5597 5594 5589 5585 5583 5581 5580 5579 5578 5577 5577 5576 5577 5578 5579
5672 5666 5660 5654 5649 5645 5641 5637 5633 5631 5628 5627 5623 5619 5618 5617 5616 5620 5618 5615 5610 5605 5603 5601 5598 5594 5590 5586 5583 5577 5574 5570 5566 5563 5562 5561 5560 5560 5559 5559 5559 5561 5563
5665 5659 5653 5647 5642 5638 5633 5629 5625 5622 5620 5618 5615 5611 5607 5604 5602 5601 5602 5602 5600 5597 5593 5588 5583 5579 5575 5572 5568 5565 5560 5554 5549 5546 5544 5543 5543 5542 5542 5542 5542 5544 5546
5655 5649 5644 5638 5633 5628 5624 5619 5615 5611 5608 5603 5601 5599 5596 5594 5592 5589 5586 5585 5585 5583 5578 5572 5567 5563 5560 5556 5553 5548 5542 5537 5532 5530 5528 5526 5525 5524 5524 5524 5525 5526 5528
5644 5636 5631 5626 5621 5616 5611 5607 5602 5598 5594 5590 5586 5584 5581 5578 5576 5572 5570 5570 5570 5569 5564 5559 5554 5549 5544 5539 5535 5531 5526 5521 5517 5513 5511 5509 5508 5507 5506 5506 5507 5508 5510
5630 5624 5618 5612 5607 5603 5598 5593 5590 5585 5580 5575 5572 5567 5565 5564 5561 5558 5554 5552 5553 5554 5551 5546 5541 5533 5527 5521 5516 5512 5508 5506 5502 5498 5495 5492 5490 5490 5489 5489 5490 5491 5492
5616 5610 5604 5598 5593 5588 5583 5579 5575 5569 5564 5561 5558 5554 5550 5549 5545 5541 5537 5534 5532 5534 5536 5530 5523 5517 5510 5504 5499 5495 5493 5491 5487 5484 5480 5478 5475 5474 5474 5473 5473 5474 5475
5602 5595 5588 5582 5576 5571 5566 5562 5557 5552 5549 5545 5540 5535 5532 5531 5528 5524 5521 5518 5515 5514 5516 5511 5504 5500 5493 5487 5483 5480 5478 5476 5473 5471 5468 5465 5463 5461 5460 5460 5460 5460 5460
5583 5577 5571 5565 5559 5554 5549 5545 5542 5537 5533 5529 5524 5522 5518 5513 5510 5508 5506 5503 5500 5497 5497 5495 5487 5483 5476 5471 5468 5465 5464 5463 5463 5462 5459 5456 5453 5451 5449 5449 5450 5450 5450
5565 5559 5553 5547 5541 5536 5532 5528 5524 5520 5517 5513 5509 5505 5502 5499 5494 5492 5489 5486 5483 5478 5475 5474 5470 5466 5461 5457 5454 5452 5452 5452 5451 5451 5449 5446 5445 5444 5444 5443 5443 5443 5443
5547 5541 5535 5529 5524 5519 5515 5511 5508 5504 5500 5497 5493 5490 5487 5483 5480 5478 5473 5470 5467 5463 5458 5457 5456 5452 5449 5446 5445 5443 5442 5441 5441 5442 5442 5442 5442 5441 5440 5439 5439 5438 5437
5529 5522 5517 5512 5507 5503 5499 5494 5491 5488 5484 5481 5478 5475 5473 5470 5466 5463 5460 5457 5453 5449 5446 5444 5443 5441 5439 5438 5435 5435 5435 5435 5434 5435 5436 5438 5438 5438 5437 5436 5435 5435 5433
5510 5505 5500 5496 5491 5487 5480 5474 5473 5473 5470 5468 5466 5464 5462 5457 5451 5447 5445 5443 5440 5437 5436 5434 5434 5433 5433 5431 5429 5428 5427 5428 5429 5429 5431 5433 5434 5435 5435 5435 5434 5433 5431
5493 5488 5483 5479 5475 5470 5458 5454 5452 5456 5457 5457 5455 5453 5451 5448 5444 5437 5433 5429 5427 5427 5429 5427 5426 5426 5427 5425 5423 5422 5421 5420 5423 5425 5424 5427 5429 5431 5432 5432 5432 5430 5428
5476 5471 5467 5463 5459 5451 5443 5439 5438 5440 5445 5445 5443 5442 5441 5439 5433 5431 5427 5425 5425 5424 5421 5420 5421 5422 5421 5421 5419 5418 5416 5415 5416 5418 5418 5422 5425 5426 5427 5429 5428 5426 5424
5461 5456 5452 5447 5444 5438 5430 5427 5426 5431 5435 5434 5432 5431 5429 5427 5424 5418 5418 5421 5423 5424 5422 5421 5421 5420 5419 5417 5414 5413 5411 5412 5413 5416 5415 5417 5421 5422 5424 5425 5424 5423 5421
5446 5442 5437 5433 5430 5426 5418 5415 5413 5421 5424 5424 5423 5422 5420 5418 5414 5409 5412 5418 5422 5423 5424 5422 5420 5419 5417 5415 5411 5410 5410 5410 5411 5414 5413 5411 5413 5415 5419 5423 5421 5419 5418
5432 5429 5424 5420 5417 5414 5408 5404 5402 5410 5413 5414 5415 5415 5414 5410 5407 5406 5410 5416 5419 5422 5423 5424 5423 5422 5420 5417 5413 5410 5408 5406 5406 5407 5407 5403 5405 5405 5411 5417 5419 5418 5418